Location: Innerarity Island Observatory
(30.3139°N, 87.4867°W)
Time: 19:15:57
(UTC-05:00)

JAS-2 - Visible Passes

Search period start: 25 October 2014 00:00
Search period end: 03 November 2014 23:00
Orbit: 801 x 1321 km, 98.5° (Epoch: 24 October)

Date Brightness Start Highest point End Pass type
(mag) Time Alt. Az. Time Alt. Az. Time Alt. Az.
25 Oct 10.8 05:58:51 10° NNE 06:06:36 60° E 06:14:08 10° S visible
26 Oct 12.4 05:05:29 10° NE 05:11:22 23° E 05:17:06 10° SE visible
26 Oct 11.8 18:40:32 10° SSW 18:45:30 29° W 18:51:00 10° NW visible
27 Oct 10.9 05:54:07 10° NNE 06:01:50 56° E 06:09:14 10° S visible
28 Oct 12.5 05:00:56 10° NE 05:06:32 21° E 05:11:58 10° SE visible
28 Oct 11.6 18:35:22 10° SSW 18:40:33 33° W 18:46:22 10° NNW visible
29 Oct 11.0 05:49:24 10° NNE 05:57:03 53° E 06:04:19 10° S visible
29 Oct 13.1 19:31:03 10° W 19:31:20 10° W 19:31:38 10° W visible
30 Oct 12.5 04:56:25 10° NE 05:01:42 19° E 05:06:47 10° SE visible
30 Oct 11.5 18:30:12 10° SSW 18:35:37 36° W 18:41:43 10° NNW visible
31 Oct 11.1 05:44:41 10° NNE 05:52:15 49° E 05:59:22 10° S visible
31 Oct 12.9 19:24:17 10° WSW 19:26:23 12° W 19:28:33 10° WNW visible
01 Nov 12.6 04:51:57 10° NE 04:56:51 18° E 05:01:33 10° SE visible
01 Nov 10.1 06:34:32 10° N 06:42:22 73° WNW 06:49:45 10° SSW visible
01 Nov 11.3 18:25:05 10° SSW 18:30:42 39° W 18:37:03 10° NNW visible
02 Nov 11.2 04:40:00 10° NNE 04:47:27 46° E 04:54:24 10° S visible
02 Nov 12.8 18:18:31 10° WSW 18:21:25 13° W 18:24:29 10° WNW visible
03 Nov 12.7 03:47:32 10° NE 03:51:59 16° E 03:56:15 10° SE visible
03 Nov 10.1 05:29:45 10° N 05:37:36 78° WNW 05:44:55 10° SSW visible
03 Nov 11.2 17:19:58 10° SSW 17:25:48 43° W 17:32:24 10° NNW visible
